STARLINK-30113, 56291

Orbit data source: Space-Track

STARLINK-30113, 56291 is a payload satellite owned by SpaceX/Seattle (US) in LEO that was launched on Wed, 19 Apr 2023 UTC via an FALCON 9 launch vehicle from the Air Force Eastern Test Range (AFETR). Payload-class satellites include a variety of spacecraft equipped with specific instruments for various scientific and technological missions. These include communications satellites like Starlink; space stations such as the ISS; scientific satellites like the Hubble; Earth observation satellites from companies like Planet Labs, Umbra, and HawkEye 360; GPS; miniature CubeSats for education and research; and military/defense satellites.

Loading next visibility...
Identifier
56291, 2023-056F
Orbit
LEO
Last TLE update
20 hours ago
Origin
Manufacturer
SpaceX/Seattle
Mission
Operational Commercial Communications
Bus & Motor
STARLINK V2M, Unknown motor
Mass
730 kg wet, ~700 kg dry
Launch date (UTC)
2023-04-19 (2 years ago)
Launch vehicle
FALCON 9
Launch site
Air Force Eastern Test Range (AFETR)
Object type
Payload
Rocket body
Debris
Shape & HBR
Box + 2 Pan, 29 m
Radar Cross Section
33.884 m², Large (>1 m²)

Expand to show TLE details & history

TLE from 20 hours ago
0 STARLINK-30113
1 56291U 23056F   25130.19987629  .00002093  00000-0  16997-3 0  9990
2 56291  43.0038  59.1464 0001167 260.2434  99.8277 15.02536801114377
Epoch: 2025-05-10T04:47Z
Definitive object data (Epoch: 2025-05-10T04:47:49.311Z)
Latitude
0.00001°
Longitude
118.94586°
Altitude
558.994 km
Speed
7.584 km/s
True Right ascension
03h 56m 35s
True Declination
0° 00' 00"
Sunlit
Object was in daylight at TLE epoch
Visualization TLE readout
Latitude
42.15377°
Longitude
-140.36504°
Altitude
562.794 km
Speed
7.585 km/s
Apparent Right ascension
15h 17m 43s
Apparent Declination
12° 11' 13"
Sunlit
Object is in daylight
Visualization observer readout
Local Sidereal Time
08:39:09
Azimuth
74.516° E
Elevation
0.568°
Doppler factor
1
Orbital elements
Apogee altitude
561.81 km
Perigee altitude
560.191 km
Semi-major axis
6,939.137 km
Eccentricity
0.0001167
Inclination
43.0038°
RAAN
59.1464°
Arg. of periapsis
260.2434°
True anomaly
99.84088°
Mean anomaly
99.8277°
Eccentric anomaly
99.83429°
Mean motion
3.75478 °/min
BSTAR
0.00016997
Orbital period
95.88 mins
Loading maneuver chart data...
Loading SW <> Apogee altitude chart data...
Loading historical data...
Loading historical data...
Loading historical data...
Loading historical data...
Loading historical data...
Loading historical data...
Loading historical data...

STARLINK-30113 Visibility forecast

Observer location: undefined°, undefined°

Span
Click to sort rows by Start time (UTC) header in descending order
Start Az.
Max El. time (UTC)
Max El. Az.
Max El.
End time (UTC)
End Az.
7 mins2025-05-11 01:54:26.400Z287.815° WNW2025-05-11 01:58:26.400Z32.219° NE39.616°2025-05-11 02:01:26.400Z84.384° E
6 mins2025-05-11 03:36:26.400Z279.329° WNW2025-05-11 03:38:26.400Z235.82° WSW40.967°2025-05-11 03:42:26.400Z124.197° SE
7 mins2025-05-11 22:30:26.400Z230.295° WSW2025-05-11 22:33:26.400Z155.121° SSE40.615°2025-05-11 22:37:26.400Z75.988° E
6 mins2025-05-12 00:11:26.400Z276.653° WNW2025-05-12 00:14:26.400Z12.793° NNE40.427°2025-05-12 00:17:26.400Z70.341° E
|